FENGYUN 1C DEB, 30810

Orbit data source: Space-Track

FENGYUN 1C DEB, 30810 is space debris in SSO originally from a launch on Mon, 10 May 1999 UTC launched from the Taiyaun Space Center, China (TSC). Fengyun 1C debris stems from the Chinese weather satellite Fengyun-1C, which was intentionally destroyed by a Chinese anti-satellite missile in 2007. This event dramatically increased the amount of space debris, with thousands of trackable fragments posing hazards to satellites and human spaceflight. The Fengyun 1C debris cloud has become a focal point in discussions about space sustainability and the need for international regulations to prevent the creation of new debris.

Loading next visibility...
Identifier
30810, 1999-025AUU
Orbit
SSO
Country
Flag of CNCN / PRC
Related business
Manufacturer
Unknown
Mission
Spacecraft
Bus & Motor
Unknown
Mass
Unknown
Launch date (UTC)
1999-05-10 (27 years ago)
Launch vehicle
Unknown
Launch site
Taiyaun Space Center, China (TSC)
Object type
Payload
Rocket body
Debris
Shape & HBR
Unknown shape, 0.1 m
Radar Cross Section
Medium (>0.1 m² and <1 m²)

Expand to show TLE details & history
Last TLE update: 11 hours ago

TLE from 11 hours ago
0 FENGYUN 1C DEB
1 30810U 99025AUU 26254.39389342  .00003707  00000-0  19282-2 0  9998
2 30810  98.6779  59.9162 0172891   5.7405 354.5693 14.07833621982156
Epoch: 2026-09-11T09:27Z
TLE epoch observation values (Epoch: 2026-09-11T09:27:12.391Z)
Latitude
-0.00006°
Longitude
-72.3033°
Altitude
744.993 km
Speed
7.546 km/s
True Right ascension
03h 59m 39s
True Declination
0° 00' 00"
Sunlit
Object was in daylight at epoch
Visualization orbit readout
Latitude
Unknown
Longitude
Unknown
Altitude
Unknown
Speed
Unknown
Apparent Right ascension
Unknown
Apparent Declination
Unknown
Sunlit
N/A
Visualization observer readout
Local Sidereal Time
12:59:51
Azimuth
Unknown
Elevation
Unknown
Doppler factor
Unknown
Orbital elements
Apogee altitude
989.176 km
Perigee altitude
738.757 km
Semi-major axis
7,242.104 km
Eccentricity
0.01729
Inclination
98.6779°
RAAN
59.9162°
Arg. of periapsis
5.7405°
True anomaly
354.37768°
Mean anomaly
354.5693°
Eccentric anomaly
354.47391°
Mean motion
3.52165 °/min
Orbital period
102.22 mins
BSTAR
0.0019282
Loading maneuver chart data...
Computing Atmospheric mass density...
Loading historical data...
Loading historical data...
Loading historical data...
Loading historical data...
Loading historical data...
Loading historical data...
Loading historical data...

Documentation

Showing up to 5 results
|